Location: Newark
(44.9861°N, 0.2536°E)
Time: 21:44:53
(UTC+00:00)

HuskySat-1 - Pass Details

Date: 13 July 2020
Orbit: 457 x 471 km, 51.6° (Epoch: 10 August)

Event Time Altitude Azimuth Distance (km) Brightness Sun altitude
Exits shadow 23:43:39 39° 56° (NE) 709 ? -23.2°
Drops below altitude 10° 23:46:03 10° 60° (ENE) 1,613 ? -23.2°
Sets 23:48:12 0° 61° (ENE) 2,488 ? -23.3°
